contact:dominique.lefevre@mio.osupytheas.fr, maurice.libes@osupytheas.fr, didier.mallarino@osupytheas.fr
Project:EMSO http://www.emso-fr.org/EMSO-France
Depth: 2436.0 m
Title:EMSO Ligure Ouest : Data MII capteur AQUADOPP
Date,Latitude,Longitude,X_East,Y_North,Z_Up,Amplitude_X,Amplitude_Y,Amplitude_Z,Batterie,SoundSpeed,Heading,Pitch,Roll,Pressure,TIS,Speed,Direction
, degrees North, degrees East, m.s-1, m.s-1,m.s-1, 1, 1, 1, Volt, m.s-1, degree, degree, degree, dbar, degree_C, m.s-1, degree
2023-11-11T00:04:03,42.805,6.029,0.038,-0.019,-0.021,104.0,104.0,102.0,13.4,1505.2,333.8,-0.7,1.8,2471.46,13.28,0.042,116.6
2023-11-11T00:07:03,42.805,6.029,0.034,-0.025,-0.032,104.0,105.0,102.0,13.4,1505.2,0.0,-0.8,1.8,2471.461,13.29,0.042,126.3
2023-11-11T00:10:03,42.805,6.029,0.038,-0.01,-0.015,104.0,104.0,102.0,13.4,1505.2,354.2,-0.8,1.8,2471.454,13.29,0.039,104.7
2023-11-11T00:13:03,42.805,6.029,0.036,-0.027,-0.001,104.0,103.0,102.0,13.4,1505.2,348.8,-0.8,1.8,2471.472,13.29,0.045,126.9
2023-11-11T00:16:03,42.805,6.029,0.029,-0.003,-0.02,104.0,104.0,101.0,13.4,1505.2,344.3,-0.8,1.8,2471.423,13.29,0.029,95.9
2023-11-11T00:19:03,42.805,6.029,0.025,-0.017,-0.023,102.0,104.0,102.0,13.4,1505.2,358.2,-0.8,1.8,2471.49,13.29,0.03,124.2
2023-11-11T00:22:03,42.805,6.029,0.03,-0.018,-0.007,103.0,104.0,102.0,13.3,1505.2,341.2,-0.8,1.8,2471.43,13.29,0.034,121.0
2023-11-11T00:25:03,42.805,6.029,0.035,-0.016,-0.017,105.0,104.0,102.0,13.4,1505.2,340.9,-0.8,1.8,2471.461,13.29,0.038,114.6
2023-11-11T00:28:03,42.805,6.029,0.032,-0.011,0.002,105.0,103.0,101.0,13.3,1505.2,349.8,-0.7,1.8,2471.44,13.29,0.033,109.0
2023-11-11T00:31:03,42.805,6.029,0.034,-0.009,-0.021,104.0,103.0,102.0,13.3,1505.2,335.7,-0.8,1.8,2471.467,13.29,0.035,104.8
2023-11-11T00:34:03,42.805,6.029,0.027,-0.007,-0.018,103.0,104.0,101.0,13.4,1505.2,0.0,-0.8,1.8,2471.45,13.29,0.027,104.5
2023-11-11T00:37:03,42.805,6.029,0.034,-0.001,-0.043,104.0,104.0,102.0,13.4,1505.2,341.2,-0.8,1.8,2471.403,13.29,0.034,91.7
2023-11-11T00:40:03,42.805,6.029,0.028,-0.029,-0.025,104.0,103.0,103.0,13.4,1505.2,346.4,-0.8,1.8,2471.446,13.29,0.04,136.0
2023-11-11T00:43:03,42.805,6.029,0.043,-0.028,0.0,103.0,103.0,102.0,13.4,1505.2,355.6,-0.7,1.8,2471.429,13.29,0.051,123.1
2023-11-11T00:46:03,42.805,6.029,0.032,-0.019,-0.038,104.0,105.0,102.0,13.4,1505.2,340.4,-0.8,1.8,2471.425,13.29,0.037,120.7
2023-11-11T00:49:03,42.805,6.029,0.035,0.013,0.015,104.0,104.0,100.0,13.4,1505.2,333.8,-0.8,1.8,2471.408,13.29,0.037,69.6
2023-11-11T00:52:03,42.805,6.029,0.017,0.0,-0.013,104.0,104.0,102.0,13.3,1505.2,357.1,-0.8,1.8,2471.427,13.29,0.017,90.0
2023-11-11T00:55:03,42.805,6.029,0.027,0.009,0.005,103.0,103.0,102.0,13.4,1505.2,341.8,-0.8,1.8,2471.45,13.29,0.028,71.6
2023-11-11T00:58:03,42.805,6.029,0.034,-0.007,-0.013,102.0,104.0,102.0,13.4,1505.2,334.6,-0.8,1.8,2471.384,13.29,0.034,101.6
2023-11-11T01:04:03,42.805,6.029,0.028,-0.014,-0.039,105.0,104.0,103.0,13.4,1505.2,341.5,-0.8,1.8,2471.499,13.29,0.031,116.6
2023-11-11T01:07:03,42.805,6.029,0.039,-0.015,-0.012,103.0,103.0,102.0,13.4,1505.2,352.4,-0.8,1.8,2471.477,13.29,0.041,111.0
2023-11-11T01:10:03,42.805,6.029,0.041,-0.002,0.014,104.0,103.0,102.0,13.4,1505.2,352.4,-0.7,1.8,2471.468,13.29,0.041,92.8
2023-11-11T01:13:03,42.805,6.029,0.037,-0.016,-0.033,103.0,104.0,102.0,13.3,1505.2,338.7,-0.8,1.8,2471.495,13.29,0.04,113.4
2023-11-11T01:16:03,42.805,6.029,0.024,-0.01,0.0,105.0,102.0,101.0,13.4,1505.2,335.9,-0.8,1.8,2471.458,13.29,0.026,112.6
2023-11-11T01:19:03,42.805,6.029,0.033,-0.024,-0.019,102.0,104.0,102.0,13.4,1505.2,359.0,-0.7,1.8,2471.472,13.29,0.04,126.0
2023-11-11T01:22:02,42.805,6.029,0.042,-0.002,-0.015,103.0,102.0,102.0,13.4,1505.2,352.1,-0.8,1.8,2471.465,13.29,0.042,92.7
2023-11-11T01:25:03,42.805,6.029,0.055,-0.014,-0.036,104.0,102.0,100.0,13.4,1505.2,336.5,-0.7,1.8,2471.421,13.29,0.056,104.3
2023-11-11T01:28:03,42.805,6.029,0.036,-0.005,0.015,104.0,104.0,102.0,13.4,1505.2,354.8,-0.8,1.8,2471.497,13.29,0.036,97.9
2023-11-11T01:31:03,42.805,6.029,0.043,-0.014,-0.02,104.0,104.0,101.0,13.4,1505.2,343.9,-0.8,1.8,2471.445,13.29,0.045,108.0
2023-11-11T01:34:03,42.805,6.029,0.024,-0.005,-0.02,104.0,103.0,101.0,13.3,1505.2,338.7,-0.8,1.8,2471.475,13.29,0.024,101.8
2023-11-11T01:37:03,42.805,6.029,0.021,-0.015,-0.008,104.0,103.0,103.0,13.4,1505.2,346.9,-0.8,1.8,2471.451,13.29,0.025,125.5
2023-11-11T01:40:03,42.805,6.029,0.043,-0.023,-0.017,104.0,104.0,102.0,13.3,1505.2,342.8,-0.8,1.8,2471.475,13.29,0.048,118.1
2023-11-11T01:43:03,42.805,6.029,0.049,0.005,0.0,103.0,102.0,103.0,13.4,1505.2,335.6,-0.8,1.8,2471.473,13.29,0.049,84.2
2023-11-11T01:46:03,42.805,6.029,0.031,0.008,0.009,103.0,102.0,102.0,13.4,1505.2,359.1,-0.8,1.8,2471.451,13.29,0.032,75.5
2023-11-11T01:49:03,42.805,6.029,0.037,-0.029,-0.01,104.0,103.0,102.0,13.4,1505.2,353.7,-0.8,1.8,2471.465,13.29,0.047,128.1
2023-11-11T01:52:03,42.805,6.029,0.027,0.001,-0.019,105.0,103.0,101.0,13.4,1505.2,344.9,-0.8,1.8,2471.457,13.29,0.027,87.9
2023-11-11T01:55:03,42.805,6.029,0.043,-0.032,-0.032,103.0,102.0,102.0,13.4,1505.2,352.1,-0.8,1.8,2471.462,13.29,0.053,126.7
2023-11-11T01:58:03,42.805,6.029,0.034,-0.007,-0.012,104.0,103.0,102.0,13.4,1505.2,352.0,-0.8,1.8,2471.454,13.29,0.034,101.6
2023-11-11T02:04:03,42.805,6.029,0.049,-0.014,-0.043,103.0,103.0,101.0,13.4,1505.2,333.8,-0.8,1.8,2471.492,13.28,0.05,105.9
2023-11-11T02:07:03,42.805,6.029,0.053,-0.029,-0.005,103.0,104.0,102.0,13.4,1505.2,358.0,-0.8,1.8,2471.474,13.29,0.06,118.7
2023-11-11T02:10:03,42.805,6.029,0.045,0.0,-0.023,103.0,106.0,102.0,13.3,1505.2,344.8,-0.8,1.8,2471.479,13.29,0.045,90.0
2023-11-11T02:13:03,42.805,6.029,0.031,-0.022,-0.041,103.0,104.0,100.0,13.4,1505.2,351.3,-0.8,1.8,2471.523,13.29,0.038,125.4
2023-11-11T02:16:03,42.805,6.029,0.05,0.005,-0.031,104.0,103.0,101.0,13.4,1505.2,337.6,-0.8,1.8,2471.473,13.29,0.05,84.3
2023-11-11T02:19:03,42.805,6.029,0.04,0.0,-0.011,104.0,103.0,102.0,13.4,1505.2,354.9,-0.8,1.8,2471.511,13.29,0.04,90.0
2023-11-11T02:22:03,42.805,6.029,0.039,-0.006,-0.012,104.0,103.0,103.0,13.3,1505.2,348.0,-0.8,1.9,2471.502,13.29,0.039,98.7
2023-11-11T02:25:03,42.805,6.029,0.056,-0.005,0.008,103.0,104.0,101.0,13.4,1505.2,336.8,-0.8,1.8,2471.467,13.29,0.056,95.1
2023-11-11T02:28:03,42.805,6.029,0.029,0.005,-0.024,103.0,103.0,102.0,13.4,1505.2,0.9,-0.8,1.8,2471.453,13.29,0.029,80.2
2023-11-11T02:31:03,42.805,6.029,0.055,0.0,-0.024,104.0,102.0,102.0,13.4,1505.2,341.5,-0.8,1.8,2471.46,13.29,0.055,90.0
2023-11-11T02:34:03,42.805,6.029,0.041,-0.015,-0.024,103.0,105.0,103.0,13.3,1505.2,343.7,-0.8,1.8,2471.486,13.29,0.043,110.1
2023-11-11T02:37:03,42.805,6.029,0.033,-0.001,-0.021,104.0,104.0,102.0,13.4,1505.2,345.0,-0.8,1.8,2471.471,13.29,0.033,91.7
2023-11-11T02:40:03,42.805,6.029,0.035,-0.006,-0.025,103.0,105.0,102.0,13.4,1505.2,342.7,-0.8,1.8,2471.49,13.29,0.035,99.7
2023-11-11T02:43:03,42.805,6.029,0.045,0.0,-0.004,103.0,103.0,103.0,13.4,1505.2,336.5,-0.8,1.8,2471.461,13.29,0.045,90.0
2023-11-11T02:46:03,42.805,6.029,0.029,-0.004,-0.043,104.0,103.0,102.0,13.3,1505.2,348.8,-0.8,1.8,2471.472,13.29,0.029,97.8
2023-11-11T02:49:03,42.805,6.029,0.029,-0.006,-0.028,104.0,104.0,102.0,13.3,1505.2,351.3,-0.8,1.8,2471.496,13.29,0.029,101.7
2023-11-11T02:52:03,42.805,6.029,0.048,-0.012,-0.003,105.0,102.0,102.0,13.4,1505.2,334.6,-0.7,1.8,2471.457,13.29,0.049,104.0
2023-11-11T02:55:03,42.805,6.029,0.028,0.01,-0.035,104.0,104.0,102.0,13.4,1505.2,333.4,-0.8,1.8,2471.481,13.29,0.029,70.4
2023-11-11T02:58:03,42.805,6.029,0.065,-0.013,-0.002,103.0,102.0,103.0,13.3,1505.2,347.1,-0.8,1.8,2471.521,13.29,0.066,101.3
2023-11-11T03:04:03,42.805,6.029,0.038,-0.008,-0.008,103.0,103.0,102.0,13.4,1505.2,351.1,-0.8,1.8,2471.569,13.28,0.038,101.9
2023-11-11T03:07:03,42.805,6.029,0.026,0.02,-0.004,104.0,105.0,102.0,13.3,1505.2,347.3,-0.8,1.8,2471.567,13.29,0.032,52.4
2023-11-11T03:10:03,42.805,6.029,0.02,-0.005,-0.032,105.0,102.0,101.0,13.4,1505.2,345.7,-0.8,1.8,2471.503,13.29,0.02,104.0
2023-11-11T03:13:03,42.805,6.029,0.04,-0.003,-0.022,103.0,106.0,101.0,13.3,1505.2,358.1,-0.8,1.9,2471.587,13.29,0.04,94.3
2023-11-11T03:16:03,42.805,6.029,0.062,-0.033,0.003,104.0,102.0,101.0,13.4,1505.2,350.0,-0.8,1.8,2471.52,13.29,0.07,118.0
2023-11-11T03:19:03,42.805,6.029,0.04,0.002,-0.02,104.0,102.0,101.0,13.4,1505.2,342.6,-0.8,1.8,2471.518,13.29,0.04,87.1
2023-11-11T03:22:03,42.805,6.029,0.026,0.0,-0.016,103.0,104.0,103.0,13.3,1505.2,342.6,-0.8,1.8,2471.542,13.29,0.026,90.0
2023-11-11T03:25:03,42.805,6.029,0.047,-0.01,0.006,104.0,103.0,103.0,13.4,1505.2,339.5,-0.8,1.8,2471.544,13.29,0.048,102.0
2023-11-11T03:28:03,42.805,6.029,0.02,-0.009,-0.027,105.0,103.0,103.0,13.4,1505.2,345.9,-0.8,1.8,2471.537,13.29,0.021,114.2
2023-11-11T03:31:03,42.805,6.029,0.021,-0.009,-0.017,103.0,104.0,102.0,13.4,1505.2,343.6,-0.8,1.8,2471.528,13.29,0.022,113.2
2023-11-11T03:34:03,42.805,6.029,0.027,0.001,-0.003,104.0,104.0,102.0,13.4,1505.2,353.4,-0.8,1.8,2471.513,13.29,0.027,87.9
2023-11-11T03:37:03,42.805,6.029,0.031,0.012,-0.037,105.0,104.0,102.0,13.3,1505.2,336.0,-0.8,1.8,2471.513,13.29,0.033,68.8
2023-11-11T03:40:03,42.805,6.029,0.032,0.0,-0.011,104.0,104.0,102.0,13.3,1505.2,343.0,-0.8,1.8,2471.535,13.29,0.032,90.0
2023-11-11T03:43:03,42.805,6.029,0.047,0.001,-0.027,105.0,104.0,102.0,13.4,1505.2,340.7,-0.8,1.8,2471.527,13.29,0.047,88.8
2023-11-11T03:46:03,42.805,6.029,0.023,-0.019,-0.019,103.0,103.0,102.0,13.4,1505.2,352.2,-0.8,1.8,2471.519,13.29,0.029,129.6
2023-11-11T03:49:03,42.805,6.029,0.051,-0.007,-0.019,104.0,104.0,102.0,13.4,1505.2,338.0,-0.8,1.8,2471.54,13.29,0.051,97.8
2023-11-11T03:52:03,42.805,6.029,0.025,-0.04,-0.006,104.0,105.0,102.0,13.4,1505.2,0.9,-0.8,1.8,2471.538,13.29,0.047,148.0
2023-11-11T03:55:03,42.805,6.029,0.035,-0.006,-0.017,102.0,102.0,102.0,13.3,1505.2,352.1,-0.8,1.8,2471.501,13.29,0.035,99.7
2023-11-11T03:58:03,42.805,6.029,0.025,-0.012,-0.001,104.0,105.0,102.0,13.4,1505.2,357.4,-0.8,1.8,2471.529,13.29,0.027,115.6
2023-11-11T04:04:03,42.805,6.029,0.017,0.01,-0.022,105.0,103.0,102.0,13.4,1505.2,359.0,-0.8,1.8,2471.598,13.28,0.019,59.5
2023-11-11T04:07:03,42.805,6.029,0.045,-0.014,0.002,104.0,105.0,102.0,13.3,1505.2,352.9,-0.8,1.8,2471.607,13.29,0.047,107.3
2023-11-11T04:10:03,42.805,6.029,0.039,-0.01,-0.026,104.0,104.0,102.0,13.4,1505.2,347.7,-0.8,1.8,2471.547,13.29,0.04,104.4
2023-11-11T04:13:03,42.805,6.029,0.031,0.006,-0.04,104.0,105.0,102.0,13.4,1505.2,342.1,-0.8,1.8,2471.534,13.29,0.031,79.0
2023-11-11T04:16:03,42.805,6.029,0.053,-0.012,-0.012,104.0,104.0,102.0,13.4,1505.2,350.3,-0.8,1.8,2471.55,13.29,0.054,102.8
2023-11-11T04:19:03,42.805,6.029,0.044,-0.012,0.016,104.0,104.0,102.0,13.3,1505.2,349.8,-0.7,1.8,2471.595,13.29,0.045,105.3
2023-11-11T04:22:03,42.805,6.029,0.034,-0.008,-0.026,104.0,103.0,103.0,13.3,1505.2,342.0,-0.7,1.8,2471.548,13.29,0.034,103.2
2023-11-11T04:25:03,42.805,6.029,0.031,0.008,-0.001,103.0,104.0,102.0,13.3,1505.2,334.5,-0.8,1.8,2471.557,13.29,0.032,75.5
2023-11-11T04:28:03,42.805,6.029,0.031,-0.015,0.002,104.0,104.0,103.0,13.4,1505.2,351.8,-0.8,1.8,2471.574,13.29,0.034,115.8
2023-11-11T04:31:03,42.805,6.029,0.033,-0.008,-0.035,104.0,104.0,102.0,13.4,1505.2,347.5,-0.7,1.8,2471.612,13.29,0.033,103.6
2023-11-11T04:34:03,42.805,6.029,0.037,-0.004,-0.004,104.0,105.0,102.0,13.4,1505.2,345.3,-0.8,1.8,2471.578,13.29,0.037,96.2
2023-11-11T04:37:03,42.805,6.029,0.052,-0.028,0.001,104.0,104.0,102.0,13.4,1505.2,354.9,-0.8,1.8,2471.569,13.29,0.059,118.3
2023-11-11T04:40:03,42.805,6.029,0.032,-0.031,-0.033,104.0,103.0,102.0,13.4,1505.2,355.4,-0.8,1.8,2471.558,13.29,0.044,134.1
2023-11-11T04:43:03,42.805,6.029,0.033,-0.011,-0.008,103.0,103.0,102.0,13.4,1505.2,351.0,-0.8,1.8,2471.593,13.29,0.034,108.4
2023-11-11T04:46:03,42.805,6.029,0.009,-0.015,-0.026,104.0,103.0,103.0,13.4,1505.2,351.3,-0.8,1.8,2471.58,13.29,0.017,149.0
2023-11-11T04:49:03,42.805,6.029,0.032,-0.023,-0.028,104.0,104.0,102.0,13.4,1505.2,352.6,-0.8,1.8,2471.577,13.29,0.039,125.7
2023-11-11T04:52:03,42.805,6.029,0.032,-0.013,-0.011,104.0,104.0,103.0,13.4,1505.2,350.2,-0.7,1.8,2471.576,13.29,0.034,112.1
2023-11-11T04:55:03,42.805,6.029,0.03,-0.012,-0.018,105.0,105.0,101.0,13.4,1505.2,343.4,-0.8,1.8,2471.583,13.29,0.032,111.8
2023-11-11T04:58:03,42.805,6.029,0.039,0.002,0.012,104.0,106.0,101.0,13.4,1505.2,343.5,-0.7,1.8,2471.598,13.29,0.039,87.1
2023-11-11T05:04:03,42.805,6.029,0.064,-0.013,-0.018,104.0,104.0,102.0,13.4,1505.2,337.7,-0.8,1.8,2471.629,13.28,0.065,101.5
2023-11-11T05:07:03,42.805,6.029,0.032,-0.009,-0.025,103.0,104.0,102.0,13.3,1505.2,359.0,-0.7,1.8,2471.659,13.29,0.033,105.7
2023-11-11T05:10:03,42.805,6.029,0.023,0.006,0.004,105.0,103.0,102.0,13.3,1505.2,351.7,-0.8,1.8,2471.619,13.29,0.023,75.4
2023-11-11T05:13:03,42.805,6.029,0.035,0.004,-0.016,103.0,103.0,102.0,13.4,1505.2,335.8,-0.8,1.8,2471.627,13.29,0.035,83.5
2023-11-11T05:16:03,42.805,6.029,0.057,-0.035,-0.045,104.0,104.0,102.0,13.3,1505.2,351.5,-0.8,1.8,2471.642,13.29,0.066,121.6
2023-11-11T05:19:03,42.805,6.029,0.035,0.001,0.029,103.0,105.0,103.0,13.4,1505.2,345.3,-0.8,1.8,2471.575,13.29,0.035,88.4
2023-11-11T05:22:03,42.805,6.029,0.036,-0.013,-0.009,104.0,104.0,102.0,13.4,1505.2,346.2,-0.8,1.8,2471.614,13.29,0.038,109.9
2023-11-11T05:25:03,42.805,6.029,0.047,0.013,0.0,104.0,103.0,102.0,13.3,1505.2,339.8,-0.8,1.8,2471.597,13.29,0.048,74.5
2023-11-11T05:28:03,42.805,6.029,0.022,-0.008,-0.027,104.0,104.0,101.0,13.4,1505.2,357.3,-0.7,1.8,2471.59,13.29,0.023,110.0
2023-11-11T05:31:03,42.805,6.029,0.031,-0.01,-0.012,105.0,105.0,101.0,13.3,1505.2,345.5,-0.8,1.8,2471.589,13.29,0.032,107.9
2023-11-11T05:34:03,42.805,6.029,0.022,0.017,-0.012,104.0,103.0,102.0,13.3,1505.2,335.8,-0.8,1.8,2471.588,13.29,0.027,52.3
2023-11-11T05:37:03,42.805,6.029,0.053,-0.02,-0.005,104.0,104.0,102.0,13.4,1505.2,1.7,-0.8,1.8,2471.573,13.29,0.056,110.7
2023-11-11T05:40:03,42.805,6.029,0.033,-0.007,0.002,104.0,103.0,102.0,13.3,1505.2,340.4,-0.8,1.8,2471.58,13.29,0.033,102.0
2023-11-11T05:43:03,42.805,6.029,0.034,-0.02,-0.014,103.0,104.0,103.0,13.4,1505.2,347.9,-0.8,1.8,2471.591,13.29,0.039,120.5
2023-11-11T05:46:03,42.805,6.029,0.029,0.004,0.002,104.0,102.0,102.0,13.4,1505.2,352.4,-0.8,1.8,2471.585,13.29,0.029,82.2
2023-11-11T05:49:03,42.805,6.029,0.024,0.002,-0.018,104.0,103.0,102.0,13.4,1505.2,345.1,-0.8,1.8,2471.557,13.29,0.024,85.2
2023-11-11T05:52:03,42.805,6.029,0.068,-0.013,-0.004,102.0,104.0,102.0,13.3,1505.2,356.5,-0.8,1.8,2471.599,13.29,0.069,100.8
2023-11-11T05:55:03,42.805,6.029,0.017,0.016,-0.038,104.0,103.0,101.0,13.4,1505.2,354.3,-0.8,1.8,2471.578,13.29,0.023,46.7
2023-11-11T05:58:03,42.805,6.029,0.044,0.003,-0.019,104.0,104.0,102.0,13.3,1505.2,352.4,-0.8,1.8,2471.621,13.29,0.044,86.1
2023-11-11T06:04:03,42.805,6.029,0.041,-0.022,-0.005,103.0,104.0,102.0,13.4,1505.2,344.1,-0.7,1.8,2471.655,13.28,0.046,118.2
2023-11-11T06:07:03,42.805,6.029,0.049,-0.015,-0.011,104.0,103.0,102.0,13.4,1505.2,354.2,-0.8,1.8,2471.632,13.29,0.051,107.0
2023-11-11T06:10:03,42.805,6.029,0.029,-0.027,-0.019,104.0,104.0,102.0,13.4,1505.2,352.1,-0.8,1.8,2471.631,13.29,0.039,133.0
2023-11-11T06:13:03,42.805,6.029,0.049,-0.005,-0.013,104.0,103.0,102.0,13.3,1505.2,342.3,-0.7,1.8,2471.614,13.29,0.049,95.8
2023-11-11T06:16:03,42.805,6.029,0.066,-0.021,0.014,104.0,103.0,102.0,13.4,1505.2,348.5,-0.7,1.8,2471.6,13.29,0.069,107.6
2023-11-11T06:19:03,42.805,6.029,0.054,-0.003,-0.003,103.0,104.0,101.0,13.3,1505.2,342.8,-0.8,1.8,2471.639,13.29,0.054,93.2
2023-11-11T06:22:03,42.805,6.029,0.04,0.002,-0.007,103.0,105.0,102.0,13.3,1505.2,341.5,-0.8,1.8,2471.598,13.29,0.04,87.1
2023-11-11T06:25:03,42.805,6.029,0.019,-0.012,-0.022,103.0,103.0,102.0,13.3,1505.2,353.3,-0.8,1.8,2471.574,13.29,0.022,122.3
2023-11-11T06:28:03,42.805,6.029,0.047,-0.006,0.011,103.0,106.0,102.0,13.3,1505.2,336.0,-0.7,1.8,2471.615,13.29,0.047,97.3
2023-11-11T06:31:03,42.805,6.029,0.042,0.001,-0.001,104.0,104.0,101.0,13.3,1505.2,0.0,-0.8,1.8,2471.596,13.29,0.042,88.6
2023-11-11T06:34:03,42.805,6.029,0.022,0.018,-0.009,103.0,104.0,102.0,13.4,1505.2,345.9,-0.7,1.8,2471.584,13.29,0.028,50.7
2023-11-11T06:37:03,42.805,6.029,0.041,0.017,0.0,103.0,104.0,102.0,13.4,1505.2,334.5,-0.8,1.8,2471.579,13.29,0.044,67.5
2023-11-11T06:40:03,42.805,6.029,0.05,-0.023,-0.004,103.0,104.0,102.0,13.4,1505.2,359.0,-0.7,1.8,2471.582,13.29,0.055,114.7
2023-11-11T06:43:03,42.805,6.029,0.035,0.0,-0.014,103.0,103.0,102.0,13.3,1505.2,345.9,-0.8,1.8,2471.577,13.29,0.035,90.0
2023-11-11T06:46:03,42.805,6.029,0.053,-0.013,-0.014,104.0,104.0,101.0,13.4,1505.2,347.2,-0.8,1.8,2471.57,13.29,0.054,103.8
2023-11-11T06:49:03,42.805,6.029,0.053,-0.004,-0.015,104.0,104.0,102.0,13.4,1505.2,345.9,-0.8,1.8,2471.576,13.29,0.053,94.3
2023-11-11T06:52:03,42.805,6.029,0.042,-0.006,0.02,102.0,105.0,101.0,13.4,1505.2,344.8,-0.7,1.8,2471.556,13.29,0.042,98.1
2023-11-11T06:55:03,42.805,6.029,0.025,-0.007,-0.017,104.0,104.0,102.0,13.4,1505.2,346.8,-0.7,1.8,2471.571,13.29,0.025,105.6
2023-11-11T06:58:03,42.805,6.029,0.034,-0.014,-0.016,104.0,103.0,103.0,13.3,1505.2,357.0,-0.8,1.8,2471.573,13.29,0.036,112.4
2023-11-11T07:04:03,42.805,6.029,0.045,0.006,-0.026,103.0,104.0,103.0,13.4,1505.2,334.9,-0.8,1.8,2471.651,13.28,0.045,82.4
2023-11-11T07:07:03,42.805,6.029,0.031,0.001,-0.034,104.0,105.0,102.0,13.4,1505.2,0.8,-0.7,1.8,2471.638,13.29,0.031,88.2
2023-11-11T07:10:03,42.805,6.029,0.048,0.008,-0.003,104.0,105.0,103.0,13.4,1505.2,346.3,-0.8,1.8,2471.612,13.29,0.048,80.5
2023-11-11T07:13:03,42.805,6.029,0.048,-0.003,-0.022,104.0,105.0,103.0,13.3,1505.2,349.6,-0.7,1.8,2471.607,13.29,0.048,93.6
2023-11-11T07:16:03,42.805,6.029,0.028,-0.008,-0.043,105.0,104.0,102.0,13.4,1505.2,351.9,-0.8,1.8,2471.583,13.29,0.029,105.9
2023-11-11T07:19:03,42.805,6.029,0.058,0.008,0.007,104.0,107.0,102.0,13.4,1505.2,335.8,-0.7,1.8,2471.604,13.29,0.058,82.2
2023-11-11T07:22:03,42.805,6.029,0.025,-0.019,0.0,104.0,104.0,102.0,13.4,1505.2,352.1,-0.7,1.8,2471.613,13.29,0.031,127.2
2023-11-11T07:25:03,42.805,6.029,0.035,-0.019,-0.009,103.0,103.0,102.0,13.4,1505.2,354.6,-0.7,1.8,2471.608,13.29,0.039,118.5
2023-11-11T07:28:03,42.805,6.029,0.04,0.0,-0.02,104.0,104.0,103.0,13.4,1505.2,341.5,-0.8,1.8,2471.6,13.29,0.04,90.0
2023-11-11T07:31:03,42.805,6.029,0.036,-0.014,-0.008,103.0,104.0,102.0,13.4,1505.2,342.8,-0.8,1.8,2471.552,13.29,0.038,111.2
2023-11-11T07:34:03,42.805,6.029,0.038,0.002,0.0,104.0,104.0,103.0,13.4,1505.2,336.3,-0.8,1.8,2471.55,13.29,0.038,87.0
2023-11-11T07:37:03,42.805,6.029,0.043,-0.012,-0.003,105.0,104.0,102.0,13.4,1505.2,350.3,-0.8,1.8,2471.572,13.29,0.044,105.6
2023-11-11T07:40:03,42.805,6.029,0.046,-0.002,-0.012,103.0,105.0,104.0,13.4,1505.2,335.2,-0.7,1.8,2471.532,13.29,0.046,92.5
2023-11-11T07:43:03,42.805,6.029,0.047,-0.027,-0.015,104.0,104.0,103.0,13.4,1505.2,1.7,-0.8,1.8,2471.562,13.29,0.054,119.9
2023-11-11T07:46:03,42.805,6.029,0.063,-0.027,0.002,103.0,104.0,103.0,13.3,1505.2,347.1,-0.8,1.8,2471.558,13.29,0.068,113.2
2023-11-11T07:49:03,42.805,6.029,0.033,-0.011,-0.011,104.0,104.0,102.0,13.4,1505.2,354.1,-0.8,1.8,2471.563,13.29,0.034,108.4
2023-11-11T07:52:03,42.805,6.029,0.032,0.001,0.006,104.0,104.0,102.0,13.4,1505.2,346.6,-0.7,1.8,2471.539,13.29,0.032,88.2
2023-11-11T07:55:03,42.805,6.029,0.041,-0.011,-0.02,104.0,105.0,102.0,13.4,1505.2,336.9,-0.8,1.8,2471.577,13.29,0.042,105.0
2023-11-11T07:58:03,42.805,6.029,0.022,-0.009,-0.005,104.0,104.0,102.0,13.3,1505.2,359.1,-0.8,1.8,2471.554,13.29,0.023,112.2
2023-11-11T08:04:03,42.805,6.029,0.062,-0.013,-0.018,105.0,105.0,103.0,13.4,1505.2,352.3,-0.7,1.8,2471.633,13.28,0.063,101.8
2023-11-11T08:07:03,42.805,6.029,0.018,-0.024,-0.017,105.0,106.0,102.0,13.4,1505.2,357.0,-0.8,1.8,2471.557,13.29,0.03,143.1
2023-11-11T08:10:03,42.805,6.029,0.026,-0.016,-0.023,105.0,104.0,102.0,13.4,1505.2,353.5,-0.8,1.8,2471.583,13.29,0.03,121.6
2023-11-11T08:13:03,42.805,6.029,0.035,-0.007,-0.001,104.0,106.0,102.0,13.4,1505.2,334.9,-0.7,1.8,2471.582,13.29,0.035,101.3
2023-11-11T08:16:03,42.805,6.029,0.04,-0.015,-0.033,105.0,104.0,102.0,13.4,1505.2,350.8,-0.8,1.8,2471.547,13.29,0.042,110.6
2023-11-11T08:19:03,42.805,6.029,0.013,-0.019,-0.029,105.0,105.0,102.0,13.4,1505.2,346.1,-0.8,1.8,2471.548,13.29,0.023,145.6
2023-11-11T08:22:03,42.805,6.029,0.04,-0.019,-0.015,103.0,105.0,103.0,13.4,1505.2,333.4,-0.8,1.8,2471.557,13.29,0.044,115.4
2023-11-11T08:25:03,42.805,6.029,0.046,0.001,0.002,104.0,105.0,102.0,13.3,1505.2,0.0,-0.8,1.8,2471.55,13.29,0.046,88.8
2023-11-11T08:28:03,42.805,6.029,0.05,-0.012,-0.003,105.0,104.0,103.0,13.3,1505.2,350.0,-0.8,1.8,2471.557,13.29,0.051,103.5
2023-11-11T08:31:03,42.805,6.029,0.019,-0.006,-0.014,104.0,104.0,102.0,13.4,1505.2,348.6,-0.8,1.8,2471.566,13.29,0.019,107.5
2023-11-11T08:34:03,42.805,6.029,0.057,-0.024,-0.009,104.0,104.0,103.0,13.4,1505.2,340.1,-0.8,1.8,2471.543,13.29,0.061,112.8
2023-11-11T08:37:03,42.805,6.029,0.049,0.012,-0.001,105.0,104.0,102.0,13.3,1505.2,341.5,-0.8,1.8,2471.539,13.29,0.05,76.2
2023-11-11T08:40:03,42.805,6.029,0.041,-0.013,-0.001,105.0,104.0,103.0,13.4,1505.2,345.7,-0.8,1.8,2471.5,13.29,0.043,107.6
2023-11-11T08:43:03,42.805,6.029,0.028,-0.016,-0.031,104.0,103.0,103.0,13.4,1505.2,359.0,-0.7,1.8,2471.508,13.29,0.032,119.7
2023-11-11T08:46:03,42.805,6.029,0.046,-0.025,-0.009,104.0,103.0,102.0,13.4,1505.2,352.9,-0.7,1.8,2471.564,13.29,0.052,118.5
2023-11-11T08:49:03,42.805,6.029,-0.004,-0.002,-0.04,105.0,105.0,102.0,13.3,1505.2,349.1,-0.8,1.8,2471.517,13.29,0.004,243.4
2023-11-11T08:52:03,42.805,6.029,0.028,-0.007,-0.03,104.0,105.0,103.0,13.4,1505.2,343.7,-0.8,1.8,2471.537,13.29,0.028,104.0
2023-11-11T08:55:03,42.805,6.029,0.046,-0.015,-0.017,105.0,104.0,103.0,13.4,1505.2,336.9,-0.7,1.8,2471.545,13.29,0.048,108.1
2023-11-11T08:58:03,42.805,6.029,0.029,-0.022,-0.008,103.0,104.0,103.0,13.3,1505.2,0.9,-0.8,1.8,2471.511,13.29,0.036,127.2
2023-11-11T09:04:03,42.805,6.029,0.051,0.002,-0.015,105.0,105.0,102.0,13.4,1505.2,333.8,-0.8,1.8,2471.532,13.28,0.051,87.8
2023-11-11T09:07:03,42.805,6.029,0.027,-0.016,-0.031,104.0,105.0,103.0,13.4,1505.2,347.9,-0.8,1.8,2471.549,13.29,0.031,120.7
2023-11-11T09:10:03,42.805,6.029,0.061,-0.012,-0.004,104.0,105.0,102.0,13.3,1505.2,351.2,-0.8,1.8,2471.569,13.29,0.062,101.1
2023-11-11T09:13:03,42.805,6.029,0.033,0.008,-0.012,105.0,103.0,103.0,13.4,1505.2,344.0,-0.7,1.8,2471.569,13.29,0.033,76.4
2023-11-11T09:16:03,42.805,6.029,0.019,-0.015,-0.023,105.0,105.0,103.0,13.4,1505.2,352.3,-0.7,1.8,2471.566,13.29,0.024,128.3
2023-11-11T09:19:03,42.805,6.029,0.046,-0.013,-0.003,104.0,105.0,102.0,13.4,1505.2,342.0,-0.7,1.8,2471.503,13.29,0.047,105.8
2023-11-11T09:22:03,42.805,6.029,0.025,-0.006,-0.02,104.0,104.0,102.0,13.3,1505.2,340.0,-0.8,1.8,2471.526,13.29,0.025,103.5
2023-11-11T09:25:03,42.805,6.029,0.036,-0.007,-0.011,104.0,105.0,102.0,13.4,1505.2,359.1,-0.8,1.8,2471.51,13.29,0.036,101.0
2023-11-11T09:28:03,42.805,6.029,0.04,-0.01,-0.033,104.0,105.0,103.0,13.4,1505.2,350.8,-0.8,1.8,2471.542,13.29,0.041,104.0
2023-11-11T09:31:03,42.805,6.029,0.031,-0.025,0.0,105.0,105.0,101.0,13.3,1505.2,356.6,-0.8,1.9,2471.5,13.29,0.039,128.9
2023-11-11T09:34:03,42.805,6.029,0.03,0.001,-0.03,106.0,106.0,101.0,13.4,1505.2,348.6,-0.8,1.8,2471.51,13.29,0.03,88.1
2023-11-11T09:37:03,42.805,6.029,0.037,-0.011,-0.031,105.0,104.0,102.0,13.4,1505.2,337.1,-0.8,1.8,2471.512,13.29,0.038,106.6
2023-11-11T09:40:03,42.805,6.029,0.032,-0.025,-0.025,105.0,105.0,103.0,13.3,1505.2,0.0,-0.7,1.8,2471.509,13.29,0.04,128.0
2023-11-11T09:43:03,42.805,6.029,0.03,-0.006,-0.032,105.0,103.0,103.0,13.4,1505.2,348.0,-0.8,1.8,2471.493,13.29,0.03,101.3
2023-11-11T09:46:03,42.805,6.029,0.055,-0.005,-0.019,106.0,104.0,103.0,13.4,1505.2,341.2,-0.8,1.8,2471.487,13.29,0.055,95.2
2023-11-11T09:49:03,42.805,6.029,0.039,0.0,-0.007,104.0,105.0,102.0,13.3,1505.2,355.1,-0.8,1.8,2471.51,13.29,0.039,90.0
2023-11-11T09:52:03,42.805,6.029,0.024,-0.023,-0.021,106.0,105.0,101.0,13.3,1505.2,353.5,-0.8,1.8,2471.449,13.29,0.033,133.8
2023-11-11T09:55:03,42.805,6.029,0.026,-0.005,-0.028,104.0,104.0,102.0,13.4,1505.2,351.6,-0.8,1.8,2471.494,13.29,0.026,100.9
2023-11-11T09:58:03,42.805,6.029,0.038,-0.01,-0.022,105.0,104.0,102.0,13.3,1505.2,352.4,-0.8,1.8,2471.516,13.29,0.039,104.7